Location: Mentone
(34.5413°N, 85.5351°W)
Time: 18:07:52
(UTC-05:00)

ADEOS Rocket - Visible Passes

Search period start: 24 October 2014 00:00
Search period end: 02 November 2014 23:00
Orbit: 860 x 1307 km, 98.7° (Epoch: 24 October)

Date Brightness Start Highest point End Pass type
(mag) Time Alt. Az. Time Alt. Az. Time Alt. Az.
24 Oct 5.0 20:16:32 21° NNE 20:16:32 21° NNE 20:19:29 10° N visible
24 Oct 5.5 22:03:31 19° NNW 22:03:31 19° NNW 22:05:31 10° NNW visible
25 Oct 5.3 19:27:11 12° NE 19:27:11 12° NE 19:28:27 10° NNE visible
25 Oct 5.1 21:14:09 25° N 21:14:09 25° N 21:16:56 10° N visible
26 Oct 5.0 20:24:48 22° NNE 20:24:48 22° NNE 20:27:34 10° N visible
26 Oct 5.7 22:11:47 16° NNW 22:11:47 16° NNW 22:13:16 10° NNW visible
27 Oct 5.2 19:35:27 13° NE 19:35:27 13° NE 19:37:00 10° NNE visible
27 Oct 5.2 21:22:26 23° NNW 21:22:26 23° NNW 21:24:51 10° NNW visible
28 Oct 5.0 20:33:05 22° NNE 20:33:05 22° NNE 20:35:37 10° N visible
28 Oct 5.8 22:20:03 14° NNW 22:20:03 14° NNW 22:20:59 10° NNW visible
29 Oct 5.2 19:43:44 14° NNE 19:43:44 14° NNE 19:45:22 10° NNE visible
29 Oct 5.4 21:30:42 20° NNW 21:30:42 20° NNW 21:32:44 10° NNW visible
30 Oct 5.1 20:41:21 21° N 20:41:21 21° N 20:43:38 10° N visible
30 Oct 6.0 22:28:20 11° NW 22:28:20 11° NW 22:28:39 10° NNW visible
31 Oct 5.2 19:52:00 15° NNE 19:52:00 15° NNE 19:53:37 10° NNE visible
31 Oct 5.5 21:38:59 18° NNW 21:38:59 18° NNW 21:40:34 10° NNW visible
01 Nov 5.2 20:49:38 20° N 20:49:38 20° N 20:51:37 10° N visible
02 Nov 5.2 19:00:17 15° NNE 19:00:17 15° NNE 19:01:48 10° NNE visible
02 Nov 5.7 20:47:16 15° NNW 20:47:16 15° NNW 20:48:23 10° NNW visible
